Content
SEND FEEDBACK

Daily
Averages
Monthly
Summary
United States of America

ANN ARBOR, MICHIGAN


Home > North America > United States > Michigan
Elevation: 231 meters     Latitude: 42 17N     Longitude: 083 43W

WEATHER
 
SELECT A DAY
Number of Records: 207,968;   Date Range: 1/1/95 - 11/21/14
 
SHARE

PRINT THIS DATA

[ ← Previous Day ]
WEATHER ALMANAC - 19 FEBRUARY, 2013
[ Next Day → ]
[ °F ]   °C
Weather ElementAverageHighLow
Temperature-2.9 °C6.1 °C (1:53 am)-8 °C (9:25 pm)
Dewpoint-5.7 °C4.4 °C (1:53 am)-12.2 °C (11:53 pm)
Humidity81.4 %93 % (4:57 am)68 % (3:53 pm)
Barometer1005.4 hPa1014.6 hPa (10:53 pm)996.3 hPa (4:26 am)
Wind Speed32.5 km/h46.3 km/h (12:23 pm)
Wind Gust62.9 km/h (4:53 am)
Weather ElementAverage
Visibility8.4 km
Wind DirectionWSW (250 °)

Weather ElementTotal
Precipitation4.32 mm
Heating Degree Days19.3 (Base 18.3)
Averaged from 54 records on 19 February, 2013
WEATHER CONDITIONS BREAKOUT
WIND DIRECTION BREAKOUT
WEATHER BY HOUR - 19 FEBRUARY, 2013
[ °F ]   °C
Local TimeTemperatureDewpointHumidityBarometerVisibilityWind DirectionWind SpeedGust SpeedPrecipitationEventsConditions
1:34 AM6 °C4 °C87 %1000 hPa16.1 kmSSW (200°)24.1 km/h40.7 km/h0.51 mmRainLight Rain
1:53 AM6.1 °C4.4 °C89 %1000 hPa16.1 kmSouth (190°)25.9 km/h51.8 km/h0.76 mmRainLight Rain
2:11 AM6 °C4 °C87 %999 hPa12.9 kmSouth (190°)20.4 km/h33.3 km/h0 mmRainLight Rain
2:53 AM5.6 °C3.9 °C89 %998.6 hPa11.3 kmSouth (190°)25.9 km/h44.4 km/h1.02 mmRainLight Rain
3:53 AM5.6 °C4.4 °C92 %997 hPa11.3 kmSSW (200°)29.6 km/h44.4 km/h1.27 mmRainLight Rain
4:26 AM6 °C4 °C87 %996.3 hPa6.4 kmSSW (210°)29.6 km/h40.7 km/h0.25 mmRainLight Rain
4:53 AM3.9 °C2.2 °C89 %998 hPa8 kmWest (260°)38.9 km/h62.9 km/h0.51 mmRainLight Rain
4:57 AM3 °C2 °C93 %997.6 hPa12.9 kmWest (260°)37 km/h59.2 km/h0 mmRainLight Rain
4:59 AM3 °C2 °C93 %997.6 hPa16.1 kmWest (260°)31.5 km/h51.8 km/h0 mmOvercast
5:20 AM3 °C1 °C87 %998.3 hPa16.1 kmWest (270°)27.8 km/h48.1 km/h0 mmOvercast
5:53 AM2.2 °C0.6 °C89 %999 hPa16.1 kmWest (270°)33.3 km/h44.4 km/h0 mmOvercast
6:53 AM1.1 °C-0.6 °C89 %1000.7 hPa11.3 kmWSW (250°)37 km/h48.1 km/hOvercast
7:45 AM1 °C-1 °C87 %1000.3 hPa8 kmWSW (240°)27.8 km/h38.9 km/h0 mmRainLight Freezing Rain
7:53 AM0 °C-1.1 °C92 %1001.4 hPa9.7 kmWSW (250°)31.5 km/h38.9 km/h0 mmRainLight Freezing Rain
8:27 AM-1 °C-2 °C93 %1001.4 hPa8 kmWSW (250°)35.2 km/h46.3 km/h0 mmOvercast
8:53 AM-1.7 °C-3.3 °C89 %1002.7 hPa9.7 kmWSW (250°)38.9 km/h53.8 km/h0 mmOvercast
9:15 AM-2 °C-4 °C86 %1002.4 hPa6.4 kmWSW (240°)31.5 km/h46.3 km/h0 mmSnowLight Snow
9:44 AM-3 °C-4 °C93 %1003 hPa2.9 kmWSW (240°)38.9 km/h48.1 km/h0 mmSnowLight Snow
9:53 AM-3.3 °C-5 °C88 %1003.7 hPa1.6 kmWSW (240°)31.5 km/h44.4 km/h0 mmSnowLight Snow
10:03 AM-3 °C-6 °C80 %1003 hPa2.4 kmWSW (250°)33.3 km/h44.4 km/h0 mmSnowLight Snow
10:12 AM-3 °C-6 °C80 %1003 hPa1.6 kmWSW (240°)31.5 km/h40.7 km/h0 mmSnowLight Snow
10:27 AM-3 °C-6 °C80 %1003.4 hPa1.3 kmWSW (250°)25.9 km/h38.9 km/h0 mmSnowLight Snow
10:36 AM-4 °C-6 °C86 %1003.4 hPa0.8 kmWSW (250°)25.9 km/h0 mmFog-SnowSnow
10:48 AM-3 °C-6 °C80 %1003.4 hPa1.9 kmWSW (250°)33.3 km/h0 mmSnowLight Snow
10:53 AM-3.3 °C-6.1 °C81 %1004.1 hPa2.4 kmWSW (250°)37 km/h44.4 km/h0 mmSnowLight Snow
11:00 AM-3 °C-7 °C74 %1003.7 hPa4.8 kmWSW (250°)40.7 km/h51.8 km/h0 mmSnowLight Snow
11:11 AM-4 °C-7 °C80 %1003.7 hPa8 kmWSW (250°)42.6 km/h55.5 km/h0 mmSnowLight Snow
11:53 AM-3.9 °C-8.3 °C72 %1005.1 hPa14.5 kmWSW (250°)38.9 km/h55.5 km/h0 mmOvercast
12:23 PM-4 °C-9 °C69 %1004.7 hPa14.5 kmWest (260°)46.3 km/h61.2 km/h0 mmOvercast
12:30 PM-4 °C-9 °C69 %1004.7 hPa16.1 kmWest (260°)46.3 km/h61.2 km/h0 mmOvercast
1:21 PM-5 °C-8 °C80 %1005.1 hPa3.2 kmWest (260°)37 km/h50.1 km/h0 mmSnowLight Snow
1:28 PM-5 °C-8 °C80 %1005.1 hPa2.9 kmWest (260°)31.5 km/h46.3 km/h0 mmSnowLight Snow
1:32 PM-4 °C-8 °C74 %1005.1 hPa4.8 kmWSW (250°)33.3 km/h44.4 km/h0 mmSnowLight Snow
1:53 PM-5 °C-9.4 °C72 %1006.4 hPa6.4 kmWest (260°)33.3 km/h53.8 km/h0 mmSnowLight Snow
2:53 PM-5 °C-9.4 °C72 %1006.8 hPa8 kmWSW (250°)37 km/h48.1 km/h0 mmSnowLight Snow
3:53 PM-5.6 °C-10.6 °C68 %1008.1 hPa14.5 kmWest (260°)31.5 km/h46.3 km/h0 mmSnowLight Snow
4:53 PM-6.1 °C-10 °C74 %1009.5 hPa9.7 kmWest (260°)40.7 km/h50.1 km/h0 mmSnowLight Snow
5:26 PM-7 °C-10 °C80 %1009.1 hPa4 kmWSW (250°)40.7 km/h55.5 km/h0 mmSnowLight Snow
5:48 PM-7 °C-10 °C80 %1009.5 hPa2.4 kmWSW (250°)38.9 km/h46.3 km/h0 mmSnowLight Snow
5:53 PM-6.7 °C-10 °C78 %1010.5 hPa2.9 kmWest (260°)29.6 km/h44.4 km/h0 mmSnowLight Snow
6:02 PM-7 °C-10 °C80 %1009.8 hPa4 kmWSW (250°)33.3 km/h40.7 km/h0 mmSnowLight Snow
6:20 PM-7 °C-10 °C80 %1010.2 hPa2.9 kmWest (260°)35.2 km/h44.4 km/h0 mmSnowLight Snow
6:28 PM-7 °C-10 °C80 %1010.2 hPa4 kmWest (260°)35.2 km/h46.3 km/h0 mmSnowLight Snow
7:53 PM-7.2 °C-11.1 °C74 %1012.9 hPa12.9 kmWest (270°)33.3 km/h48.1 km/h0 mmSnowLight Snow
8:42 PM-7 °C-11 °C74 %1012.2 hPa11.3 kmWest (260°)27.8 km/h38.9 km/h0 mmSnowLight Snow
8:53 PM-7.2 °C-11.1 °C74 %1013.5 hPa12.9 kmWest (260°)27.8 km/h42.6 km/h0 mmSnowLight Snow
9:13 PM-7 °C-11 °C74 %1012.5 hPa8 kmWest (270°)29.6 km/h0 mmSnowLight Snow
9:25 PM-8 °C-10 °C86 %1012.5 hPa2.9 kmWest (270°)25.9 km/h38.9 km/h0 mmSnowLight Snow
9:35 PM-8 °C-10 °C86 %1012.9 hPa4.8 kmWest (270°)25.9 km/h0 mmSnowLight Snow
9:45 PM-8 °C-10 °C86 %1012.9 hPa4 kmWest (270°)20.4 km/h0 mmSnowLight Snow
9:53 PM-7.8 °C-10 °C84 %1014.2 hPa4.8 kmWest (260°)20.4 km/h0 mmSnowLight Snow
10:53 PM-7.2 °C-11.1 °C74 %1014.6 hPa16.1 kmWest (270°)20.4 km/h0 mmOvercast
11:18 PM-7 °C-12 °C68 %1013.2 hPa16.1 kmWest (280°)35.2 km/hOvercast
11:53 PM-7.2 °C-12.2 °C68 %1014.6 hPa16.1 kmWest (270°)31.5 km/h42.6 km/hOvercast
Hourly data recorded from KARB, located 0 kilometers away from Ann Arbor, Michigan







STORIES FROM OUR PARTNERS